Location: ??????
(38.6171°N, 23.7342°E)
Time: 01:37:12
(UTC+00:00)

Daily predictions for brighter satellites

Satellite Brightness Start Highest point End
(mag) Time Altitude Azimuth Time Altitude Azimuth Time Altitude Azimuth
ADEOS II 2.8 00:01:34 10° NNE 00:06:35 44° E 00:07:44 38° SE
IDEFIX/ARIANE 42P 3.7 00:02:43 10° NNE 00:07:35 37° E 00:09:04 31° SE
Cosmos 2084 Rocket 4.2 00:12:47 40° NNW 00:12:47 40° NNW 00:15:48 10° NNE
Thor Agena Rocket 4.2 00:10:11 10° N 00:15:06 40° WNW 00:15:34 39° W
SL-16 R/B 2.1 00:16:08 64° SSW 00:17:03 88° WNW 00:22:46 10° NNE
NPP 3.5 00:12:44 10° NNE 00:18:09 90° ESE 00:19:05 63° SSW
Cosmos 2369 Rocket 4.4 00:13:46 10° N 00:18:10 23° NE 00:22:32 10° ESE
COSMOS 2455 3.1 00:21:40 46° SSE 00:23:14 61° ESE 00:29:10 10° NE
CZ-4 R/B 3.8 00:20:44 10° N 00:25:18 59° WNW 00:25:30 58° W
ATLAS 5 CENTAUR R/B 4.1 00:20:42 10° NW 00:24:40 22° WNW 00:24:40 22° WNW
Cosmos 1455 Rocket 3.8 00:22:37 10° NNW 00:26:09 40° WNW 00:26:09 40° WNW
CZ-4C R/B 3.9 00:21:23 10° NW 00:27:53 30° WSW 00:27:53 30° WSW
Meteor 1-28 Rocket 4.1 00:28:44 38° ESE 00:29:31 44° ENE 00:33:05 10° N
EO 1 Del DPAF 3.7 00:27:57 10° NNE 00:31:12 50° E 00:31:12 50° E
Cosmos 1536 Rocket 3.6 00:30:54 62° SSE 00:31:28 72° E 00:35:52 10° NNE
Nadezhda 1 Rocket 4.1 00:30:28 36° S 00:33:13 74° E 00:39:30 10° N
Meteor 1-24 Rocket 4.0 00:34:53 45° WSW 00:35:54 51° WNW 00:41:15 10° N
UNK 3.6 00:40:50 59° SSW 00:41:37 76° WSW 00:46:14 10° NNW
MSX 4.1 00:36:50 10° NNE 00:42:34 61° ESE 00:45:21 30° S
MOS 1 Rocket 2.9 00:44:06 62° S 00:44:46 80° WSW 00:49:04 10° NNW
Cosmos 1025 Rocket 4.5 00:47:03 24° WNW 00:47:03 24° WNW 00:50:22 10° NNW
YAOGAN 11 4.0 00:46:10 58° SSW 00:46:53 71° WSW 00:51:22 10° NNW
Cosmos 1455 2.4 00:49:20 10° NNW 00:52:38 52° WNW 00:52:38 52° WNW
Cosmos 1269 Rocket 4.3 00:49:18 10° NNW 00:54:18 45° WSW 00:55:07 42° SW
Cosmos 1271 Rocket 2.8 00:52:40 10° N 00:56:31 75° E 00:57:43 42° SSE
Lacrosse 5 3.1 00:58:31 22° W 01:00:56 33° NW 01:05:34 10° NNE
CZ-2D R/B 3.2 00:56:18 10° N 01:00:57 31° WNW 01:02:28 26° W
Cosmos 2154 Rocket 4.0 01:01:04 10° NNW 01:07:21 68° W 01:11:15 24° S
Helios 1B rocket 3.6 01:06:29 10° NNE 01:10:16 37° E 01:12:57 17° SSE
Cosmos 1943 3.4 01:08:53 26° S 01:12:09 68° ESE 01:17:49 10° NNE
Cosmos 2237 Rocket 4.5 01:13:10 10° WNW 01:14:44 11° NW 01:16:19 10° NNW
SL-16 R/B 3.1 01:14:42 28° SW 01:16:51 36° W 01:22:32 10° NNW
Helios 1A 3.2 01:16:52 36° SSW 01:18:07 49° W 01:22:13 10° NNW
BREEZE-M DEB (TANK) 3.6 01:17:31 28° SSE 01:18:31 35° SE 01:24:03 10° ENE
Cosmos 1328 4.0 01:16:43 25° S 01:18:51 66° E 01:22:48 10° NNE
Lacrosse 5 rocket 3.0 01:21:54 17° WNW 01:23:48 24° NW 01:27:08 10° NNE
Cosmos 1140 Rocket 4.5 01:19:56 10° N 01:25:02 49° ENE 01:30:05 10° SE
NOSS 3-3 (A) 3.8 01:26:08 26° SW 01:29:25 80° NW 01:35:42 10° NNE
NOSS 3-3 (C) 3.8 01:26:14 26° SW 01:29:31 81° NW 01:35:48 10° NNE
Resurs 1-4 Rocket 3.9 01:26:36 10° NNW 01:29:48 17° WNW 01:31:56 13° W
Lacrosse 4 Rocket 3.8 01:27:21 10° SSE 01:30:17 18° ESE 01:33:12 10° ENE
Cosmos 1892 Rocket 3.8 01:27:31 17° S 01:30:53 72° E 01:35:21 10° NNE
SeaSat 1 4.2 01:27:50 10° NE 01:31:58 26° ESE 01:36:04 10° SSE
Cosmos 1703 4.4 01:35:52 24° WSW 01:36:58 28° WNW 01:40:24 10° NNW
Cosmos 1943 Rocket 3.0 01:32:09 10° NW 01:36:58 29° WSW 01:39:28 21° SW
Cosmos 2297 4.2 01:31:47 10° NW 01:37:04 39° WSW 01:41:33 14° SSW
Cosmos 2263 4.5 01:31:41 10° NNW 01:37:23 73° ENE 01:43:06 10° SSE
FENGYUN 3A 4.1 01:32:53 10° NNE 01:38:13 62° E 01:43:32 10° S
Cosmos 1726 Rocket 3.6 01:33:51 10° N 01:38:17 81° E 01:42:38 10° S
MOS 1-B Rocket 3.8 01:39:41 10° SSE 01:45:20 88° ENE 01:51:03 10° NNW
ADEOS II 3.5 01:41:57 10° NNW 01:45:55 22° WNW 01:48:40 15° WSW
SL-24 DEB 4.3 01:41:19 10° S 01:46:03 82° E 01:50:47 10° N
Cosmos 1624 Rocket 4.3 01:41:18 12° S 01:46:08 69° ESE 01:51:25 10° NNE
IDEFIX/ARIANE 42P 3.8 01:42:38 10° NNW 01:46:56 26° WNW 01:49:52 16° WSW
Cosmos 1825 4.2 01:45:14 10° SSE 01:48:21 26° E 01:51:28 10° NNE
ARIANE 5 R/B 3.2 01:44:43 10° NNE 01:49:39 51° E 01:54:30 10° S
DNEPR-1 R/B 3.7 01:48:16 21° SW 01:50:55 58° NW 01:55:23 10° NNE
GPS 2-04 Rocket1 3.3 01:50:27 22° SSW 01:51:59 33° SSE 01:55:13 10° E
Cosmos 2218 Rocket 4.1 01:46:13 10° N 01:52:29 87° E 01:58:48 10° S
CBERS-1 4.1 01:47:28 10° N 01:52:31 61° WNW 01:56:47 14° SSW
Cosmos 2056 Rocket 3.5 01:52:53 12° SSW 01:57:42 87° ESE 02:02:59 10° NNE
FALCON 9 R/B 4.5 01:41:39 10° WNW 01:58:52 30° SW 02:05:10 10° S
CZ-3 R/B 4.3 01:12:31 10° WSW 02:01:48 62° S 02:13:18 10° ESE
SL-16 R/B 4.3 01:59:16 10° WNW 02:02:01 14° NW 02:04:46 10° NNW
Cosmos 2369 Rocket 2.4 01:57:04 10° NNW 02:02:26 49° WSW 02:07:46 10° S
Cosmos 2181 Rocket 4.1 01:57:57 10° SSW 02:04:06 61° W 02:10:14 10° N
Cosmos 1892 2.6 02:00:39 10° S 02:04:26 90° E 02:08:13 10° N
Cosmos 2228 4.3 02:01:35 10° NW 02:05:00 23° W 02:07:33 14° SW
OAO 2 Rocket 3.7 02:02:22 15° WSW 02:06:12 47° SSE 02:10:55 10° E
Cosmos 2251 Rocket 4.1 02:02:57 10° NW 02:07:46 37° W 02:12:36 10° SSW
Cosmos 1959 Rocket 4.5 02:02:23 10° N 02:08:37 73° W 02:14:44 10° S
COSMOS 2455 4.4 02:04:53 10° W 02:09:35 23° NW 02:14:19 10° N
Cosmos 2098 4.2 02:06:44 10° N 02:09:45 77° E 02:12:47 10° S
Cosmos 1656 Rocket 3.8 02:06:35 10° NNW 02:11:49 51° WSW 02:17:02 10° S
IRS-P3 4.1 02:07:38 10° NNE 02:13:00 85° WNW 02:18:19 10° SSW
Cosmos 2058 Rocket 3.0 02:08:45 10° NNW 02:13:08 72° W 02:17:27 10° S
Cosmos 1190 Rocket 4.1 02:10:10 10° NNW 02:15:29 90° ENE 02:20:47 10° SSE
Cosmos 1626 Rocket 3.8 02:11:44 10° S 02:16:07 73° E 02:20:30 10° NNE
In-Cosmos 22 Rocket 4.4 02:10:30 10° S 02:16:16 85° E 02:22:08 10° N
Cosmos 1408 2.9 02:14:50 10° SSW 02:18:21 47° W 02:21:53 10° N
[s.n.52708] 3.3 02:16:55 13° WSW 02:19:17 45° NW 02:22:02 10° NE
[s.n.52707] 3.3 02:17:02 13° WSW 02:19:24 45° NW 02:22:09 10° NE
[s.n.52703] 3.3 02:17:08 13° WSW 02:19:31 44° NW 02:22:15 10° NE
[s.n.52705] 3.3 02:17:14 13° WSW 02:19:37 44° NW 02:22:21 10° NE
[s.n.52706] 3.3 02:17:21 12° WSW 02:19:44 44° NW 02:22:28 10° NE
[s.n.52701] 3.3 02:17:27 12° WSW 02:19:50 44° NW 02:22:34 10° NE
[s.n.52704] 3.3 02:17:33 12° WSW 02:19:57 44° NW 02:22:41 10° NE
[s.n.52699] 3.3 02:17:40 12° WSW 02:20:03 44° NW 02:22:48 10° NE
[s.n.52702] 3.3 02:17:46 12° WSW 02:20:10 44° NW 02:22:54 10° NE
[s.n.52697] 3.3 02:17:53 12° WSW 02:20:17 44° NW 02:23:01 10° NE
[s.n.52700] 3.3 02:17:59 12° WSW 02:20:24 43° NW 02:23:07 10° NE
[s.n.52695] 3.3 02:18:05 12° WSW 02:20:30 43° NW 02:23:15 10° NE
[s.n.52698] 3.3 02:18:12 12° WSW 02:20:37 43° NW 02:23:21 10° NE
[s.n.52693] 3.3 02:18:18 12° WSW 02:20:44 43° NW 02:23:28 10° NE
[s.n.52696] 3.3 02:18:24 12° WSW 02:20:50 43° NW 02:23:34 10° NE
[s.n.52691] 3.3 02:18:31 12° WSW 02:20:57 43° NW 02:23:41 10° NE
[s.n.52689] 3.3 02:18:38 12° WSW 02:21:04 43° NW 02:23:47 10° NE
[s.n.52694] 3.4 02:18:44 12° WSW 02:21:11 43° NW 02:23:54 10° NE
[s.n.52692] 3.4 02:18:50 12° WSW 02:21:18 42° NW 02:24:01 10° NE
[s.n.52687] 3.4 02:18:57 12° WSW 02:21:24 42° NW 02:24:07 10° NE
[s.n.52685] 3.4 02:19:03 12° WSW 02:21:30 42° NW 02:24:14 10° NE
[s.n.52690] 3.4 02:19:09 12° WSW 02:21:37 42° NW 02:24:21 10° NE
[s.n.52688] 3.4 02:19:16 12° WSW 02:21:43 42° NW 02:24:27 10° NE
[s.n.52683] 3.4 02:19:22 12° WSW 02:21:51 42° NW 02:24:34 10° NE
[s.n.52686] 3.4 02:19:29 12° WSW 02:21:58 42° NW 02:24:41 10° NE
[s.n.52681] 3.4 02:19:36 12° WSW 02:22:05 42° NW 02:24:48 10° NE
[s.n.52679] 3.4 02:19:42 12° WSW 02:22:11 42° NW 02:24:54 10° NE
[s.n.52684] 3.4 02:19:48 12° WSW 02:22:18 41° NW 02:25:01 10° NE
[s.n.52682] 3.4 02:19:55 11° WSW 02:22:25 41° NW 02:25:08 10° NE
[s.n.52677] 3.4 02:20:01 11° WSW 02:22:32 41° NW 02:25:15 10° NE
[s.n.52680] 3.4 02:20:08 11° WSW 02:22:39 41° NW 02:25:22 10° NE
[s.n.52675] 3.4 02:20:14 11° WSW 02:22:45 41° NW 02:25:29 10° NE
[s.n.52678] 3.4 02:20:21 11° WSW 02:22:52 41° NW 02:25:36 10° NE
[s.n.52673] 3.4 02:20:29 11° WSW 02:23:00 41° NW 02:25:43 10° NE
[s.n.52676] 3.4 02:20:35 11° WSW 02:23:06 41° NW 02:25:49 10° NE
[s.n.52671] 3.4 02:20:42 11° WSW 02:23:13 40° NW 02:25:56 10° NE
[s.n.52669] 3.4 02:20:48 11° WSW 02:23:20 40° NW 02:26:03 10° NE
[s.n.52674] 3.5 02:20:55 11° WSW 02:23:27 40° NW 02:26:10 10° NE
[s.n.52672] 3.5 02:21:01 11° WSW 02:23:33 40° NW 02:26:16 10° NE
[s.n.52667] 3.5 02:21:08 11° WSW 02:23:41 40° NW 02:26:23 10° NE
[s.n.52665] 3.5 02:21:15 11° WSW 02:23:48 40° NW 02:26:31 10° NE
[s.n.52670] 3.5 02:21:21 11° WSW 02:23:55 40° NW 02:26:38 10° NE
[s.n.52668] 3.5 02:21:28 11° WSW 02:24:02 40° NW 02:26:45 10° NE
[s.n.52666] 3.5 02:21:35 11° WSW 02:24:09 40° NW 02:26:52 10° NE
[s.n.52663] 3.5 02:21:41 11° WSW 02:24:16 39° NW 02:26:58 10° NE
[s.n.52662] 3.5 02:21:48 11° WSW 02:24:23 39° NW 02:27:06 10° NE
[s.n.52664] 3.5 02:21:55 11° WSW 02:24:30 39° NW 02:27:12 10° NE
[s.n.52661] 3.5 02:22:02 11° WSW 02:24:37 39° NW 02:27:19 10° NE
[s.n.52660] 3.5 02:22:08 11° WSW 02:24:44 39° NW 02:27:26 10° NE
[s.n.52656] 3.5 02:22:15 11° WSW 02:24:51 39° NW 02:27:33 10° NE
[s.n.52658] 3.5 02:22:22 11° WSW 02:24:58 39° NW 02:27:41 10° NE
[s.n.52659] 3.5 02:22:28 11° WSW 02:25:05 39° NW 02:27:47 10° NE
[s.n.52657] 3.5 02:22:36 10° WSW 02:25:13 38° NW 02:27:54 10° NE
PAYLOAD A 4.2 02:24:52 10° N 02:29:27 51° WNW 02:34:08 10° SSW
ATLAS 2A CENTAUR R/B 4.0 02:17:46 10° WSW 02:31:07 37° S 02:36:43 10° ESE
Cosmos 676 Rocket 4.3 02:28:36 10° NNW 02:33:57 79° ENE 02:39:16 10° SSE
